Time,TemperatureF,DewpointF,PressureIn,WindDirection,WindDirectionDegrees,WindSpeedMPH,WindSpeedGustMPH,Humidity,HourlyPrecipIn,Conditions,Clouds,dailyrainin,SoftwareType,DateUTC
2013-04-29 00:02:00,47.0,39.0,-100.00,North,0,7.0,11.0,72,0.00,,,0.00,,2013-04-29 05:02:00,
2013-04-29 00:12:00,47.0,37.0,-100.00,North,0,8.0,11.0,70,0.00,,,0.00,,2013-04-29 05:12:00,
2013-04-29 00:22:00,46.0,37.0,-100.00,North,0,7.0,11.0,70,0.00,,,0.00,,2013-04-29 05:22:00,
2013-04-29 00:32:00,46.0,37.0,-100.00,North,0,8.0,9.0,69,0.00,,,0.00,,2013-04-29 05:32:00,
2013-04-29 00:42:00,45.0,36.0,-100.00,North,350,8.0,10.0,71,0.00,,,0.00,,2013-04-29 05:42:00,
2013-04-29 00:52:00,44.0,36.0,-100.00,NNW,345,7.0,9.0,72,0.00,,,0.00,,2013-04-29 05:52:00,
2013-04-29 01:02:00,44.0,36.0,-100.00,North,355,7.0,9.0,72,0.00,,,0.00,,2013-04-29 06:02:00,
2013-04-29 01:11:00,44.0,36.0,-100.00,NNW,340,6.0,9.0,72,0.00,,,0.00,,2013-04-29 06:11:00,
2013-04-29 01:21:00,44.0,36.0,-100.00,North,350,7.0,7.0,71,0.00,,,0.00,,2013-04-29 06:21:00,
2013-04-29 01:32:00,43.0,36.0,-100.00,NNW,340,6.0,8.0,71,0.00,,,0.00,,2013-04-29 06:32:00,
2013-04-29 01:42:00,43.0,36.0,-100.00,North,350,7.0,9.0,72,0.00,,,0.00,,2013-04-29 06:42:00,
2013-04-29 01:51:00,42.0,34.0,-100.00,NNW,340,7.0,9.0,72,0.00,,,0.00,,2013-04-29 06:51:00,
2013-04-29 02:01:00,42.0,34.0,-100.00,NNW,340,6.0,9.0,72,0.00,,,0.00,,2013-04-29 07:01:00,
2013-04-29 02:11:00,42.0,34.0,-100.00,NNW,340,6.0,8.0,72,0.00,,,0.00,,2013-04-29 07:11:00,
2013-04-29 02:21:00,42.0,34.0,-100.00,NNW,340,6.0,9.0,72,0.00,,,0.00,,2013-04-29 07:21:00,
2013-04-29 02:32:00,42.0,34.0,-100.00,NNW,330,6.0,8.0,72,0.00,,,0.00,,2013-04-29 07:32:00,
2013-04-29 02:41:00,41.0,34.0,-100.00,NNW,335,6.0,7.0,73,0.00,,,0.00,,2013-04-29 07:41:00,
2013-04-29 02:52:00,41.0,34.0,-100.00,NNW,340,7.0,9.0,73,0.00,,,0.00,,2013-04-29 07:52:00,
2013-04-29 03:02:00,41.0,34.0,-100.00,NNW,335,6.0,9.0,73,0.00,,,0.00,,2013-04-29 08:02:00,
2013-04-29 03:11:00,40.0,32.0,-100.00,North,355,7.0,8.0,74,0.00,,,0.00,,2013-04-29 08:11:00,
2013-04-29 03:21:00,40.0,32.0,-100.00,NNW,335,7.0,9.0,74,0.00,,,0.00,,2013-04-29 08:21:00,
2013-04-29 03:31:00,39.0,32.0,-100.00,North,355,7.0,9.0,75,0.00,,,0.00,,2013-04-29 08:31:00,
2013-04-29 03:42:00,39.0,32.0,-100.00,North,0,7.0,8.0,76,0.00,,,0.00,,2013-04-29 08:42:00,
2013-04-29 03:51:00,38.0,32.0,-100.00,North,0,7.0,9.0,78,0.00,,,0.00,,2013-04-29 08:51:00,
2013-04-29 04:01:00,38.0,32.0,-100.00,North,355,7.0,10.0,79,0.00,,,0.00,,2013-04-29 09:01:00,
2013-04-29 04:12:00,38.0,32.0,-100.00,North,355,7.0,10.0,79,0.00,,,0.00,,2013-04-29 09:12:00,
2013-04-29 04:21:00,38.0,32.0,-100.00,North,355,7.0,9.0,79,0.00,,,0.00,,2013-04-29 09:21:00,
2013-04-29 04:32:00,38.0,32.0,-100.00,North,5,7.0,9.0,77,0.00,,,0.00,,2013-04-29 09:32:00,
2013-04-29 04:42:00,38.0,32.0,-100.00,North,0,6.0,8.0,77,0.00,,,0.00,,2013-04-29 09:42:00,
2013-04-29 04:52:00,38.0,32.0,-100.00,North,0,7.0,9.0,77,0.00,,,0.00,,2013-04-29 09:52:00,
2013-04-29 05:02:00,38.0,32.0,-100.00,North,10,7.0,9.0,77,0.00,,,0.00,,2013-04-29 10:02:00,
2013-04-29 05:12:00,37.0,30.0,-100.00,NNE,15,7.0,8.0,78,0.00,,,0.00,,2013-04-29 10:12:00,
2013-04-29 05:23:00,37.0,32.0,-100.00,NNE,20,7.0,7.0,80,0.00,,,0.00,,2013-04-29 10:23:00,
2013-04-29 05:32:00,36.0,30.0,-100.00,NNE,30,6.0,7.0,82,0.00,,,0.00,,2013-04-29 10:32:00,
2013-04-29 05:42:00,36.0,32.0,-100.00,NNE,25,8.0,9.0,82,0.00,,,0.00,,2013-04-29 10:42:00,
2013-04-29 05:52:00,37.0,32.0,-100.00,NNE,25,9.0,10.0,80,0.00,,,0.00,,2013-04-29 10:52:00,
2013-04-29 06:02:00,37.0,30.0,-100.00,NE,35,7.0,10.0,79,0.00,,,0.00,,2013-04-29 11:02:00,
2013-04-29 06:12:00,36.0,30.0,-100.00,NE,35,7.0,9.0,79,0.00,,,0.00,,2013-04-29 11:12:00,
2013-04-29 06:21:00,36.0,30.0,-100.00,NE,35,7.0,9.0,79,0.00,,,0.00,,2013-04-29 11:21:00,
2013-04-29 06:32:00,36.0,30.0,-100.00,NNE,30,3.0,7.0,80,0.00,,,0.00,,2013-04-29 11:32:00,
2013-04-29 06:41:00,36.0,30.0,-100.00,NNE,30,4.0,5.0,80,0.00,,,0.00,,2013-04-29 11:41:00,
2013-04-29 06:52:00,36.0,30.0,-100.00,NE,35,7.0,7.0,81,0.00,,,0.00,,2013-04-29 11:52:00,
2013-04-29 07:01:00,37.0,32.0,-100.00,NE,35,7.0,8.0,81,0.00,,,0.00,,2013-04-29 12:01:00,
2013-04-29 07:12:00,37.0,32.0,-100.00,NNE,30,9.0,9.0,81,0.00,,,0.00,,2013-04-29 12:12:00,
2013-04-29 07:22:00,38.0,32.0,-100.00,NNE,30,7.0,9.0,80,0.00,,,0.00,,2013-04-29 12:22:00,
2013-04-29 07:31:00,39.0,34.0,-100.00,NE,40,7.0,7.0,79,0.00,,,0.00,,2013-04-29 12:31:00,
2013-04-29 07:41:00,39.0,34.0,-100.00,NE,50,7.0,9.0,79,0.00,,,0.00,,2013-04-29 12:41:00,
2013-04-29 07:51:00,40.0,34.0,-100.00,ENE,65,6.0,9.0,78,0.00,,,0.00,,2013-04-29 12:51:00,
2013-04-29 08:01:00,41.0,34.0,-100.00,ENE,70,7.0,10.0,76,0.00,,,0.00,,2013-04-29 13:01:00,
2013-04-29 08:11:00,43.0,36.0,-100.00,ENE,65,9.0,12.0,73,0.00,,,0.00,,2013-04-29 13:11:00,
2013-04-29 08:21:00,43.0,34.0,-100.00,ENE,70,12.0,16.0,71,0.00,,,0.00,,2013-04-29 13:21:00,
2013-04-29 08:31:00,44.0,36.0,-100.00,ENE,70,11.0,16.0,69,0.00,,,0.00,,2013-04-29 13:31:00,
2013-04-29 08:42:00,45.0,36.0,-100.00,ENE,75,11.0,14.0,68,0.00,,,0.00,,2013-04-29 13:42:00,
2013-04-29 08:52:00,46.0,36.0,-100.00,ENE,70,11.0,14.0,66,0.00,,,0.00,,2013-04-29 13:52:00,
2013-04-29 09:01:00,48.0,36.0,-100.00,ENE,70,11.0,14.0,63,0.00,,,0.00,,2013-04-29 14:01:00,
2013-04-29 09:11:00,48.0,36.0,-100.00,East,80,12.0,15.0,62,0.00,,,0.00,,2013-04-29 14:11:00,
2013-04-29 09:21:00,49.0,36.0,-100.00,ENE,75,10.0,15.0,58,0.00,,,0.00,,2013-04-29 14:21:00,
2013-04-29 09:32:00,50.0,36.0,-100.00,ENE,65,7.0,12.0,56,0.00,,,0.00,,2013-04-29 14:32:00,
2013-04-29 09:42:00,51.0,36.0,-100.00,East,90,4.0,10.0,53,0.00,,,0.00,,2013-04-29 14:42:00,
2013-04-29 09:51:00,52.0,36.0,-100.00,ENE,75,7.0,11.0,52,0.00,,,0.00,,2013-04-29 14:51:00,
2013-04-29 10:01:00,53.0,34.0,-100.00,East,90,6.0,9.0,49,0.00,,,0.00,,2013-04-29 15:01:00,
2013-04-29 10:12:00,53.0,34.0,-100.00,East,85,7.0,10.0,47,0.00,,,0.00,,2013-04-29 15:12:00,
2013-04-29 10:21:00,54.0,34.0,-100.00,ENE,65,7.0,9.0,46,0.00,,,0.00,,2013-04-29 15:21:00,
2013-04-29 10:33:00,54.0,34.0,-100.00,NE,40,7.0,9.0,44,0.00,,,0.00,,2013-04-29 15:33:00,
2013-04-29 10:42:00,55.0,32.0,-100.00,ENE,65,7.0,10.0,41,0.00,,,0.00,,2013-04-29 15:42:00,
2013-04-29 10:52:00,56.0,32.0,-100.00,East,95,6.0,10.0,40,0.00,,,0.00,,2013-04-29 15:52:00,
2013-04-29 11:02:00,57.0,32.0,-100.00,ENE,70,5.0,10.0,39,0.00,,,0.00,,2013-04-29 16:02:00,
2013-04-29 11:12:00,57.0,32.0,-100.00,ENE,70,5.0,9.0,39,0.00,,,0.00,,2013-04-29 16:12:00,
2013-04-29 11:23:00,58.0,32.0,-100.00,ENE,70,4.0,9.0,35,0.00,,,0.00,,2013-04-29 16:23:00,
2013-04-29 11:32:00,59.0,32.0,-100.00,ESE,110,3.0,11.0,34,0.00,,,0.00,,2013-04-29 16:32:00,
2013-04-29 11:42:00,60.0,32.0,-100.00,ENE,75,6.0,9.0,33,0.00,,,0.00,,2013-04-29 16:42:00,
2013-04-29 11:52:00,61.0,32.0,-100.00,ENE,70,5.0,8.0,32,0.00,,,0.00,,2013-04-29 16:52:00,
2013-04-29 12:02:00,62.0,32.0,-100.00,East,85,6.0,9.0,30,0.00,,,0.00,,2013-04-29 17:02:00,
2013-04-29 12:12:00,63.0,30.0,-100.00,SSE,150,4.0,8.0,28,0.00,,,0.00,,2013-04-29 17:12:00,
2013-04-29 12:22:00,62.0,28.0,-100.00,SSE,150,9.0,12.0,27,0.00,,,0.00,,2013-04-29 17:22:00,
2013-04-29 12:32:00,62.0,28.0,-100.00,SE,140,4.0,11.0,27,0.00,,,0.00,,2013-04-29 17:32:00,
2013-04-29 12:42:00,63.0,28.0,-100.00,South,175,7.0,10.0,27,0.00,,,0.00,,2013-04-29 17:42:00,
2013-04-29 12:52:00,64.0,30.0,-100.00,SSE,150,9.0,11.0,27,0.00,,,0.00,,2013-04-29 17:52:00,
2013-04-29 13:01:00,65.0,30.0,-100.00,SE,125,7.0,11.0,27,0.00,,,0.00,,2013-04-29 18:01:00,
2013-04-29 13:13:00,64.0,30.0,-100.00,ESE,120,6.0,11.0,27,0.00,,,0.00,,2013-04-29 18:13:00,
2013-04-29 13:22:00,65.0,30.0,-100.00,South,175,9.0,11.0,27,0.00,,,0.00,,2013-04-29 18:22:00,
2013-04-29 13:32:00,65.0,30.0,-100.00,South,185,7.0,14.0,27,0.00,,,0.00,,2013-04-29 18:32:00,
2013-04-29 13:42:00,66.0,32.0,-100.00,South,180,7.0,11.0,27,0.00,,,0.00,,2013-04-29 18:42:00,
2013-04-29 13:51:00,65.0,30.0,-100.00,South,185,11.0,15.0,27,0.00,,,0.00,,2013-04-29 18:51:00,
2013-04-29 14:01:00,67.0,32.0,-100.00,South,180,6.0,13.0,27,0.00,,,0.00,,2013-04-29 19:01:00,
2013-04-29 14:11:00,67.0,34.0,-100.00,South,185,10.0,13.0,27,0.00,,,0.00,,2013-04-29 19:11:00,
2013-04-29 14:21:00,67.0,32.0,-100.00,SE,140,7.0,15.0,27,0.00,,,0.00,,2013-04-29 19:21:00,
2013-04-29 14:31:00,67.0,32.0,-100.00,SE,140,6.0,14.0,27,0.00,,,0.00,,2013-04-29 19:31:00,
2013-04-29 14:41:00,67.0,34.0,-100.00,South,185,7.0,12.0,27,0.00,,,0.00,,2013-04-29 19:41:00,
2013-04-29 14:52:00,68.0,34.0,-100.00,SE,135,7.0,12.0,27,0.00,,,0.00,,2013-04-29 19:52:00,
2013-04-29 15:02:00,69.0,34.0,-100.00,South,180,6.0,12.0,27,0.00,,,0.00,,2013-04-29 20:02:00,
2013-04-29 15:11:00,69.0,34.0,-100.00,SE,140,9.0,14.0,26,0.00,,,0.00,,2013-04-29 20:11:00,
2013-04-29 15:21:00,69.0,34.0,-100.00,SSE,150,7.0,12.0,26,0.00,,,0.00,,2013-04-29 20:21:00,
2013-04-29 15:32:00,70.0,34.0,-100.00,South,175,6.0,17.0,26,0.00,,,0.00,,2013-04-29 20:32:00,
2013-04-29 15:42:00,70.0,34.0,-100.00,South,185,12.0,17.0,26,0.00,,,0.00,,2013-04-29 20:42:00,
2013-04-29 15:52:00,69.0,34.0,-100.00,SSE,155,13.0,17.0,27,0.00,,,0.00,,2013-04-29 20:52:00,
2013-04-29 16:01:00,70.0,36.0,-100.00,SSE,155,7.0,16.0,27,0.00,,,0.00,,2013-04-29 21:01:00,
2013-04-29 16:11:00,71.0,36.0,-100.00,SE,130,12.0,16.0,26,0.00,,,0.00,,2013-04-29 21:11:00,
2013-04-29 16:21:00,70.0,34.0,-100.00,South,175,11.0,19.0,26,0.00,,,0.00,,2013-04-29 21:21:00,
2013-04-29 16:33:00,71.0,34.0,-100.00,SSE,165,14.0,19.0,25,0.00,,,0.00,,2013-04-29 21:33:00,
2013-04-29 16:42:00,70.0,34.0,-100.00,South,170,12.0,16.0,25,0.00,,,0.00,,2013-04-29 21:42:00,
2013-04-29 16:53:00,71.0,34.0,-100.00,South,170,14.0,18.0,25,0.00,,,0.00,,2013-04-29 21:53:00,
2013-04-29 17:02:00,72.0,36.0,-100.00,South,170,16.0,21.0,25,0.00,,,0.00,,2013-04-29 22:02:00,
2013-04-29 17:13:00,72.0,34.0,-100.00,SSE,165,14.0,21.0,25,0.00,,,0.00,,2013-04-29 22:13:00,
2013-04-29 17:23:00,73.0,36.0,-100.00,SSE,155,13.0,22.0,25,0.00,,,0.00,,2013-04-29 22:23:00,
2013-04-29 17:32:00,73.0,36.0,-100.00,SSE,165,16.0,22.0,25,0.00,,,0.00,,2013-04-29 22:32:00,
2013-04-29 17:42:00,72.0,36.0,-100.00,South,170,12.0,22.0,26,0.00,,,0.00,,2013-04-29 22:42:00,
2013-04-29 17:52:00,72.0,36.0,-100.00,SSE,165,15.0,19.0,26,0.00,,,0.00,,2013-04-29 22:52:00,
2013-04-29 18:02:00,71.0,36.0,-100.00,SSE,150,11.0,20.0,27,0.00,,,0.00,,2013-04-29 23:02:00,
2013-04-29 18:11:00,70.0,36.0,-100.00,South,185,12.0,17.0,27,0.00,,,0.00,,2013-04-29 23:11:00,
2013-04-29 18:22:00,71.0,36.0,-100.00,SSE,160,11.0,12.0,28,0.00,,,0.00,,2013-04-29 23:22:00,
2013-04-29 18:32:00,71.0,37.0,-100.00,SSE,150,11.0,15.0,28,0.00,,,0.00,,2013-04-29 23:32:00,
2013-04-29 18:42:00,71.0,37.0,-100.00,SSE,155,14.0,17.0,28,0.00,,,0.00,,2013-04-29 23:42:00,
2013-04-29 18:52:00,71.0,37.0,-100.00,SSE,165,10.0,17.0,28,0.00,,,0.00,,2013-04-29 23:52:00,
2013-04-29 19:01:00,70.0,37.0,-100.00,South,170,10.0,16.0,29,0.00,,,0.00,,2013-04-30 00:01:00,
2013-04-29 19:11:00,70.0,37.0,-100.00,SSE,165,9.0,16.0,29,0.00,,,0.00,,2013-04-30 00:11:00,
2013-04-29 19:21:00,69.0,37.0,-100.00,SSE,150,11.0,15.0,30,0.00,,,0.00,,2013-04-30 00:21:00,
2013-04-29 19:32:00,69.0,37.0,-100.00,SE,140,9.0,13.0,31,0.00,,,0.00,,2013-04-30 00:32:00,
2013-04-29 19:41:00,68.0,37.0,-100.00,SE,145,7.0,10.0,32,0.00,,,0.00,,2013-04-30 00:41:00,
2013-04-29 19:51:00,68.0,37.0,-100.00,SE,135,7.0,9.0,33,0.00,,,0.00,,2013-04-30 00:51:00,
2013-04-29 20:02:00,68.0,37.0,-100.00,SE,130,7.0,11.0,33,0.00,,,0.00,,2013-04-30 01:02:00,
2013-04-29 20:11:00,67.0,39.0,-100.00,SE,130,9.0,11.0,34,0.00,,,0.00,,2013-04-30 01:11:00,
2013-04-29 20:21:00,67.0,39.0,-100.00,SE,130,7.0,11.0,35,0.00,,,0.00,,2013-04-30 01:21:00,
2013-04-29 20:32:00,66.0,39.0,-100.00,SE,125,9.0,11.0,36,0.00,,,0.00,,2013-04-30 01:32:00,
2013-04-29 20:41:00,66.0,39.0,-100.00,ESE,120,9.0,11.0,37,0.00,,,0.00,,2013-04-30 01:41:00,
2013-04-29 20:51:00,66.0,39.0,-100.00,ESE,110,7.0,11.0,38,0.00,,,0.00,,2013-04-30 01:51:00,
2013-04-29 21:01:00,65.0,39.0,-100.00,ESE,105,8.0,10.0,38,0.00,,,0.00,,2013-04-30 02:01:00,
2013-04-29 21:11:00,65.0,39.0,-100.00,East,85,6.0,11.0,39,0.00,,,0.00,,2013-04-30 02:11:00,
2013-04-29 21:21:00,63.0,39.0,-100.00,East,100,9.0,12.0,41,0.00,,,0.00,,2013-04-30 02:21:00,
2013-04-29 21:31:00,63.0,41.0,-100.00,East,100,11.0,15.0,42,0.00,,,0.00,,2013-04-30 02:31:00,
2013-04-29 21:41:00,63.0,41.0,-100.00,ESE,105,12.0,15.0,42,0.00,,,0.00,,2013-04-30 02:41:00,
2013-04-29 21:51:00,63.0,41.0,-100.00,ESE,105,12.0,16.0,42,0.00,,,0.00,,2013-04-30 02:51:00,
2013-04-29 22:01:00,63.0,41.0,-100.00,ESE,105,12.0,17.0,43,0.00,,,0.00,,2013-04-30 03:01:00,
2013-04-29 22:11:00,63.0,41.0,-100.00,ESE,110,14.0,17.0,43,0.00,,,0.00,,2013-04-30 03:11:00,
2013-04-29 22:21:00,64.0,41.0,-100.00,ESE,105,13.0,17.0,43,0.00,,,0.00,,2013-04-30 03:21:00,
2013-04-29 22:33:00,64.0,41.0,-100.00,East,100,14.0,19.0,44,0.00,,,0.00,,2013-04-30 03:33:00,
2013-04-29 22:42:00,63.0,41.0,-100.00,ESE,105,14.0,19.0,45,0.00,,,0.00,,2013-04-30 03:42:00,
2013-04-29 22:52:00,63.0,43.0,-100.00,ESE,115,14.0,21.0,46,0.00,,,0.00,,2013-04-30 03:52:00,
2013-04-29 23:02:00,63.0,43.0,-100.00,ESE,115,13.0,20.0,47,0.00,,,0.00,,2013-04-30 04:02:00,
2013-04-29 23:12:00,63.0,43.0,-100.00,ESE,110,13.0,19.0,48,0.00,,,0.00,,2013-04-30 04:12:00,
2013-04-29 23:22:00,64.0,45.0,-100.00,ESE,105,16.0,23.0,48,0.00,,,0.00,,2013-04-30 04:22:00,
2013-04-29 23:32:00,64.0,45.0,-100.00,ESE,110,16.0,21.0,49,0.00,,,0.00,,2013-04-30 04:32:00,
2013-04-29 23:42:00,64.0,45.0,-100.00,ESE,120,16.0,21.0,50,0.00,,,0.00,,2013-04-30 04:42:00,
2013-04-29 23:52:00,64.0,46.0,-100.00,ESE,110,16.0,23.0,51,0.00,,,0.00,,2013-04-30 04:52:00,